Wind_Speed
40 39 38 39 37 37 37 37 35 35 32 30 30 29 29 30 30 29 29 25 25 25 26 27 26 28 28 25 26 26 24 25 22 22 23 22 23 20
41 39 41 42 40 40 40 40 40 37 36 34 33 32 32 34 33 31 31 32 31 30 35 37 29 28 29 28 27 27 25 25 25 24 24 24 23 21
42 40 43 44 43 43 43 42 42 40 39 38 37 36 36 37 36 33 32 32 30 31 41 35 29 27 29 29 28 28 27 26 27 25 25 25 25 20
39 39 43 44 45 45 46 45 44 40 42 41 41 41 39 37 38 34 33 33 38 42 46 29 28 28 29 29 28 27 27 26 26 26 27 26 25 20
39 39 40 43 46 46 47 46 42 44 44 43 44 43 42 40 38 37 36 41 42 44 34 25 27 29 29 28 26 26 27 25 25 26 27 28 25 16
40 39 40 42 45 45 47 46 46 47 46 45 46 45 43 43 40 38 39 39 37 30 23 25 27 28 28 27 25 25 24 22 23 25 26 28 24 20
39 43 40 42 44 47 46 47 47 47 47 47 48 47 46 43 40 45 40 44 42 33 24 27 26 27 27 26 25 24 23 22 23 23 26 26 25 20
41 45 44 46 46 47 47 48 48 49 49 49 52 53 49 49 56 51 37 46 23 24 25 26 27 28 26 25 25 23 23 22 23 24 26 25 21 26
36 33 36 40 43 45 48 53 52 53 55 53 53 52 54 50 55 47 44 21 22 23 24 27 27 28 27 25 24 23 23 23 24 24 24 23 25 30
41 39 42 44 46 51 50 48 51 54 58 61 55 59 57 50 42 38 32 26 24 21 26 30 29 28 27 26 25 25 24 23 22 23 22 23 23 24
44 51 49 51 49 49 51 53 62 62 60 55 52 54 38 45 44 39 31 23 24 28 29 30 29 30 28 26 25 24 23 23 22 22 23 23 23 27
47 47 54 58 58 61 66 68 62 62 66 62 52 54 48 45 33 26 25 25 28 29 30 30 29 28 26 24 24 23 23 22 21 21 21 21 21 24
43 46 44 35 27 49 48 42 52 58 60 48 50 43 37 32 28 28 31 34 33 30 29 28 27 26 26 25 24 24 23 22 21 20 20 19 19 20
34 35 33 34 38 39 33 39 44 36 35 42 44 42 38 38 38 40 40 37 36 33 25 23 26 26 25 25 27 26 25 22 21 20 20 19 19 18
43 44 46 48 43 38 36 41 35 33 38 45 46 42 49 47 43 41 38 36 32 25 22 25 25 29 28 28 29 27 25 22 21 20 21 20 19 18
53 53 54 55 53 52 51 46 42 42 49 45 51 47 42 45 36 38 35 33 30 25 24 26 28 26 26 28 27 27 26 24 21 22 22 21 21 20
56 56 56 56 56 56 54 53 53 50 54 53 49 48 44 35 32 34 34 33 28 27 27 27 27 25 24 26 26 27 27 25 24 22 22 22 22 22
44 48 53 57 58 58 52 60 61 54 53 55 54 47 50 41 37 36 36 33 29 29 29 29 28 25 24 25 25 27 27 27 25 23 21 22 24 22
48 40 40 43 48 56 54 55 53 54 43 51 51 56 50 45 37 37 34 34 32 30 31 30 26 24 23 24 25 27 28 26 24 23 22 22 23 21
48 52 49 38 41 50 52 51 48 49 45 43 39 39 35 36 41 37 37 37 34 32 32 27 25 25 23 23 24 25 26 24 24 24 22 22 22 20
44 42 39 38 40 45 47 41 43 41 45 45 43 41 41 40 38 36 36 37 34 34 29 26 28 27 24 21 22 25 24 23 22 22 22 22 21 20
35 35 35 34 34 35 35 35 37 37 38 41 46 45 44 44 42 37 36 39 38 31 28 30 29 26 24 22 24 26 23 22 21 21 22 22 21 20
33 35 34 33 29 31 32 34 30 33 30 32 40 39 37 37 39 38 36 35 32 29 27 28 28 25 23 23 25 25 24 23 22 22 22 22 22 22
Wind_Direction
229 232 231 233 232 232 233 236 242 247 252 258 264 270 278 280 283 291 296 296 299 313 317 314 307 302 296 296 297 294 291 292 291 288 288 288 288 286
229 229 230 230 231 233 236 238 241 248 253 259 265 269 274 278 281 288 292 296 301 300 308 314 300 297 296 296 295 291 288 290 290 288 285 286 286 278
229 228 230 230 232 234 238 240 244 249 255 260 264 269 271 274 280 285 294 291 294 294 303 300 291 292 294 295 295 291 287 290 287 288 285 282 281 276
228 230 232 232 233 234 239 242 245 250 255 260 264 266 270 273 280 287 289 291 295 304 309 288 292 293 290 290 289 288 287 285 283 281 279 281 275 269
232 232 234 235 236 237 241 245 248 252 256 259 263 267 270 267 282 281 284 294 304 303 292 285 290 290 289 288 289 288 283 281 278 278 279 278 273 264
236 234 238 237 237 238 243 246 249 252 257 259 263 268 271 272 275 279 286 294 298 294 280 285 290 290 291 288 288 285 279 277 274 274 275 274 270 259
243 237 243 240 242 240 243 246 250 253 256 260 265 266 266 273 274 281 271 287 289 276 272 283 289 289 289 286 284 280 277 273 272 273 273 270 263 252
240 242 248 247 242 243 245 247 250 252 257 260 263 267 271 269 277 275 266 280 269 268 277 285 288 285 282 280 277 274 274 273 272 272 270 266 254 249
244 244 246 251 244 248 249 253 251 252 253 259 259 262 265 264 274 260 268 256 265 276 282 282 281 280 277 273 271 270 271 274 273 272 271 264 251 252
237 252 254 251 254 251 249 252 254 258 263 258 259 258 264 265 254 252 255 250 254 259 269 275 276 273 269 268 268 269 271 271 274 273 269 259 252 248
250 248 252 253 250 254 256 252 259 260 256 257 258 258 262 248 250 248 253 249 251 263 269 273 275 273 269 266 268 272 276 278 278 276 272 265 252 237
256 253 254 252 253 256 259 256 255 250 256 261 256 257 246 246 248 250 243 247 257 262 269 271 272 272 269 266 266 271 275 275 276 275 272 268 263 251
251 254 255 258 257 249 256 262 258 262 264 252 246 230 235 265 257 242 246 243 246 256 261 271 273 270 268 267 267 270 272 272 272 270 268 266 265 261
258 254 254 257 260 258 263 260 251 266 261 244 247 237 263 258 248 242 242 247 247 249 252 267 277 274 269 267 269 267 268 269 269 267 263 262 263 261
256 258 262 260 250 246 253 257 255 259 253 251 242 259 264 243 244 247 249 253 255 251 254 260 264 266 262 261 261 263 266 267 269 266 261 260 261 263
260 259 259 262 263 261 261 256 255 254 251 253 263 255 260 247 254 248 253 255 251 249 251 255 261 265 263 259 261 265 267 267 264 262 263 258 256 255
264 261 260 258 256 257 261 261 259 256 250 245 251 265 243 247 249 252 251 251 250 250 254 260 263 264 264 261 259 259 263 263 263 261 259 261 259 258
280 275 267 261 260 261 259 250 246 246 254 256 251 256 255 256 247 250 246 242 243 247 254 261 265 268 267 262 258 258 259 260 260 258 258 258 259 256
298 289 278 272 265 260 263 265 262 256 258 245 240 246 235 242 239 245 240 241 245 249 255 262 266 270 267 263 259 254 255 256 259 261 259 257 259 259
285 285 288 280 268 264 263 260 261 257 242 244 246 241 242 244 247 241 240 241 241 245 254 259 263 268 267 265 262 253 253 254 256 256 257 257 257 258
294 291 285 274 265 265 265 268 263 263 257 243 241 244 242 239 240 237 242 239 238 244 252 255 256 263 267 263 260 255 254 253 252 254 255 255 255 254
299 289 279 276 271 268 263 261 257 255 251 253 242 235 238 240 237 237 238 240 238 241 243 249 258 263 260 258 256 256 251 250 251 252 252 254 254 252
302 298 285 282 286 278 266 261 263 258 254 257 253 237 232 232 235 236 234 229 227 233 241 252 259 259 254 250 252 255 255 251 251 251 250 251 252 253
Height
3108 3113 3117 3123 3127 3130 3132 3134 3137 3138 3140 3142 3144 3145 3144 3143 3143 3143 3142 3140 3139 3137 3136 3133 3131 3131 3129 3126 3124 3123 3122 3120 3119 3117 3116 3113 3110 3109
3100 3104 3109 3115 3119 3122 3124 3126 3128 3131 3133 3134 3136 3137 3137 3136 3136 3135 3134 3134 3133 3131 3129 3127 3124 3123 3123 3120 3118 3116 3115 3115 3113 3111 3111 3107 3106 3104
3090 3095 3101 3107 3111 3114 3117 3118 3121 3123 3125 3126 3128 3128 3129 3129 3128 3127 3127 3125 3124 3123 3120 3119 3117 3115 3115 3113 3111 3110 3109 3108 3106 3105 3103 3102 3101 3099
3083 3088 3094 3099 3102 3106 3108 3110 3113 3114 3116 3118 3119 3119 3120 3121 3120 3120 3119 3118 3117 3114 3112 3111 3110 3108 3106 3105 3103 3102 3101 3099 3099 3097 3096 3095 3093 3091
3077 3082 3087 3091 3094 3098 3100 3103 3104 3106 3107 3108 3110 3110 3110 3111 3112 3112 3110 3109 3107 3105 3104 3103 3101 3100 3098 3097 3095 3093 3093 3090 3090 3090 3089 3088 3086 3084
3070 3074 3078 3082 3085 3089 3091 3093 3096 3097 3098 3099 3100 3101 3102 3102 3103 3102 3102 3100 3099 3099 3098 3095 3094 3093 3091 3090 3087 3086 3085 3083 3082 3081 3080 3080 3079 3079
3061 3066 3068 3073 3076 3079 3081 3083 3086 3087 3088 3089 3090 3090 3091 3092 3094 3092 3092 3090 3090 3092 3091 3088 3086 3086 3084 3082 3080 3079 3078 3076 3075 3074 3073 3074 3073 3073
3052 3057 3060 3063 3066 3069 3071 3073 3075 3075 3077 3080 3080 3080 3081 3082 3082 3081 3079 3080 3081 3083 3081 3080 3080 3079 3077 3075 3073 3072 3070 3068 3066 3066 3066 3066 3067 3068
3047 3049 3052 3056 3058 3059 3060 3061 3062 3063 3064 3069 3068 3069 3069 3070 3068 3070 3071 3070 3073 3074 3073 3072 3071 3070 3069 3067 3067 3065 3062 3060 3059 3058 3059 3058 3060 3063
3037 3042 3045 3046 3048 3049 3049 3049 3050 3052 3054 3056 3056 3055 3058 3055 3056 3057 3059 3061 3063 3064 3063 3062 3062 3061 3061 3059 3058 3057 3054 3052 3051 3051 3052 3052 3051 3054
3030 3032 3034 3034 3036 3037 3037 3035 3036 3039 3040 3040 3039 3042 3043 3043 3044 3046 3049 3051 3052 3053 3053 3054 3054 3053 3051 3050 3050 3048 3047 3047 3046 3046 3045 3044 3044 3046
3021 3020 3020 3022 3021 3022 3022 3020 3021 3022 3025 3025 3026 3028 3028 3030 3032 3035 3038 3040 3042 3042 3045 3046 3046 3044 3042 3042 3041 3041 3041 3039 3038 3038 3039 3037 3035 3037
3010 3010 3010 3008 3007 3008 3007 3006 3008 3010 3008 3010 3013 3013 3016 3021 3023 3025 3027 3028 3031 3032 3034 3036 3036 3036 3035 3035 3035 3033 3033 3033 3032 3031 3031 3030 3029 3030
3000 2998 2997 2996 2997 2997 2996 2995 2997 2998 2997 2998 3000 3003 3005 3007 3009 3011 3013 3016 3018 3021 3024 3026 3029 3030 3029 3027 3028 3026 3025 3025 3025 3024 3023 3023 3024 3024
2989 2988 2987 2985 2986 2985 2984 2983 2984 2986 2988 2987 2989 2991 2995 2994 2995 2999 3003 3005 3009 3012 3014 3015 3019 3019 3018 3017 3019 3018 3018 3018 3018 3018 3018 3018 3017 3018
2976 2974 2973 2972 2971 2971 2972 2970 2973 2974 2976 2976 2978 2979 2981 2983 2987 2990 2992 2996 2999 3002 3004 3005 3007 3008 3009 3010 3011 3011 3010 3011 3010 3011 3012 3010 3010 3011
2959 2958 2957 2957 2957 2958 2958 2958 2959 2961 2961 2962 2964 2968 2968 2972 2977 2980 2982 2986 2990 2992 2994 2995 2998 2997 2998 3000 2999 2999 3000 3003 3003 3003 3005 3004 3004 3005
2940 2938 2939 2939 2938 2938 2937 2939 2941 2942 2945 2948 2951 2953 2958 2962 2965 2969 2974 2976 2979 2982 2985 2987 2989 2988 2988 2989 2989 2990 2993 2994 2996 2995 2995 2997 2996 2998
2921 2922 2922 2921 2919 2920 2920 2920 2920 2924 2928 2931 2934 2939 2940 2946 2950 2957 2963 2966 2968 2971 2974 2977 2978 2979 2978 2980 2981 2981 2983 2986 2987 2989 2989 2990 2989 2991
2913 2909 2904 2903 2902 2902 2904 2906 2908 2911 2911 2918 2920 2925 2930 2937 2942 2946 2950 2956 2958 2959 2963 2967 2970 2971 2971 2972 2973 2973 2973 2977 2979 2981 2982 2982 2983 2984
2898 2894 2890 2888 2887 2886 2888 2890 2891 2893 2897 2901 2906 2910 2917 2923 2931 2935 2941 2946 2948 2949 2953 2959 2959 2962 2962 2963 2963 2963 2966 2969 2972 2973 2974 2975 2975 2977
2885 2881 2878 2875 2874 2873 2874 2876 2878 2880 2884 2888 2893 2898 2905 2912 2919 2924 2930 2934 2939 2942 2944 2948 2951 2953 2953 2954 2955 2956 2959 2961 2963 2965 2966 2968 2969 2969
2875 2872 2869 2867 2865 2864 2863 2863 2865 2867 2870 2874 2879 2884 2891 2899 2907 2913 2919 2924 2930 2932 2935 2939 2942 2943 2944 2946 2947 2949 2951 2953 2956 2957 2958 2960 2961 2962